OK1TBF-6 Weather Reports


time (UTC)temp
C
wind
direction
speed
KPH
gust
KPH
rain 1hr
cm
rain 24hr
cm
rain mn
cm
humidity
%
barometer
mb
20260507231508 10 262 8.0 9.7 0.00 0.00 0.00 91 1006.5
20260507230509 10 273 3.2 6.4 0.00 0.00 0.00 90 1006.7
20260507230008 11 279 1.6 6.4 0.00 0.00 0.00 90 1006.7
20260507225508 11 280 3.2 6.4 0.00 0.00 0.00 90 1006.5
20260507225008 11 270 3.2 6.4 0.00 0.00 0.00 90 1006.6
20260507224508 11 270 0.0 3.2 0.00 0.00 0.00 89 1006.6
20260507224008 11 270 0.0 3.2 0.00 0.00 0.00 88 1006.6
20260507223507 11 270 0.0 3.2 0.00 0.00 0.00 88 1006.6
20260507223008 11 270 0.0 3.2 0.00 0.00 0.00 88 1006.7
20260507222507 11 0 0.0 0.0 0.00 0.00 0.00 88 1006.6
20260507222008 11 0 0.0 0.0 0.00 0.00 0.00 88 1006.5
20260507221508 11 282 0.0 6.4 0.00 0.00 0.00 88 1006.5
20260507221007 11 278 0.0 6.4 0.00 0.00 0.00 88 1006.5
20260507220009 11 270 3.2 6.4 0.00 0.00 0.00 88 1006.5
20260507215507 11 270 3.2 3.2 0.00 0.00 0.00 87 1006.7
20260507215007 11 275 0.0 3.2 0.00 0.00 0.00 86 1006.5
20260507214508 11 287 0.0 3.2 0.00 0.00 0.00 86 1006.6
20260507214007 11 292 1.6 3.2 0.00 0.00 0.00 86 1006.6
20260507213507 11 279 3.2 6.4 0.00 0.00 0.00 85 1006.4
20260507213008 11 270 1.6 6.4 0.00 0.00 0.00 86 1006.5
20260507212508 11 273 3.2 6.4 0.00 0.00 0.00 85 1006.5
20260507212007 11 283 3.2 6.4 0.00 0.00 0.00 84 1006.2
20260507211506 11 292 3.2 6.4 0.00 0.00 0.00 83 1006.4
20260507211006 11 292 3.2 6.4 0.00 0.00 0.00 82 1006.4
20260507210507 11 291 1.6 6.4 0.00 0.00 0.00 82 1006.1
20260507210007 11 292 3.2 3.2 0.00 0.00 0.00 82 1006.2
20260507205506 11 295 0.0 6.4 0.00 0.00 0.00 81 1006.0
20260507205007 11 298 1.6 6.4 0.00 0.00 0.00 81 1006.1
20260507204006 11 293 3.2 6.4 0.00 0.00 0.00 80 1006.0
20260507203508 11 293 3.2 6.4 0.00 0.00 0.00 80 1005.8
20260507203006 11 297 3.2 6.4 0.00 0.00 0.00 80 1005.8
20260507202506 11 312 3.2 11.3 0.00 0.00 0.00 80 1005.8
20260507201506 11 308 4.8 9.7 0.00 0.00 0.00 80 1005.7
20260507201007 11 306 3.2 6.4 0.00 0.00 0.00 80 1005.5
20260507200007 12 303 1.6 9.7 0.00 0.00 0.00 79 1005.6
20260507195506 12 307 3.2 12.9 0.00 0.00 0.00 78 1005.5
20260507195007 12 313 4.8 12.9 0.00 0.00 0.00 78 1005.5
20260507194507 12 319 6.4 12.9 0.00 0.00 0.00 78 1005.4
20260507194006 12 322 6.4 17.7 0.00 0.00 0.00 77 1005.4
20260507193506 12 317 8.0 17.7 0.00 0.00 0.00 77 1005.4
20260507193007 12 312 9.7 14.5 0.00 0.00 0.00 77 1005.4
20260507192506 12 310 8.0 17.7 0.00 0.00 0.00 76 1005.3
20260507191506 12 311 11.3 25.7 0.00 0.00 0.00 74 1005.2
20260507190506 13 331 9.7 14.5 0.00 0.00 0.00 69 1005.0
20260507185506 13 339 9.7 14.5 0.00 0.00 0.00 67 1004.8
20260507185006 13 331 4.8 14.5 0.00 0.00 0.00 67 1004.7
20260507184505 13 312 6.4 11.3 0.00 0.00 0.00 66 1004.5
20260507183505 14 292 6.4 12.9 0.00 0.00 0.00 65 1004.6
20260507183005 14 303 6.4 17.7 0.00 0.00 0.00 65 1004.5
20260507182506 14 311 6.4 17.7 0.00 0.00 0.00 64 1004.3
20260507182005 14 312 4.8 11.3 0.00 0.00 0.00 64 1004.4
20260507181505 14 314 4.8 14.5 0.00 0.00 0.00 64 1004.3
20260507181005 15 312 6.4 14.5 0.00 0.00 0.00 61 1004.3
20260507180505 15 322 8.0 20.9 0.00 0.00 0.00 61 1004.2
20260507180006 15 331 3.2 20.9 0.00 0.00 0.00 61 1004.1
20260507175506 15 325 12.9 22.5 0.00 0.00 0.00 59 1004.1
20260507175006 15 313 3.2 22.5 0.00 0.00 0.00 58 1004.1
20260507174505 15 307 8.0 14.5 0.00 0.00 0.00 57 1004.1
20260507174005 15 309 6.4 14.5 0.00 0.00 0.00 56 1004.0
20260507173505 16 318 6.4 14.5 0.00 0.00 0.00 56 1004.1
20260507173005 16 330 6.4 14.5 0.00 0.00 0.00 55 1004.0
20260507172505 16 328 6.4 17.7 0.00 0.00 0.00 55 1003.8
20260507171504 16 307 11.3 17.7 0.00 0.00 0.00 54 1003.9
20260507171004 15 294 4.8 17.7 0.00 0.00 0.00 56 1003.9
20260507170505 15 292 8.0 24.1 0.00 0.00 0.00 56 1003.9
20260507170005 15 299 9.7 24.1 0.00 0.00 0.00 54 1003.7
20260507165505 16 302 8.0 20.9 0.00 0.00 0.00 56 1003.8
20260507165006 16 299 8.0 22.5 0.00 0.00 0.00 57 1003.7
20260507164505 16 300 12.9 29.0 0.00 0.00 0.00 56 1003.7
20260507164004 16 290 16.1 29.0 0.00 0.00 0.00 57 1003.6
20260507163505 16 292 12.9 24.1 0.00 0.00 0.00 57 1003.7
20260507163004 16 310 6.4 22.5 0.00 0.00 0.00 57 1003.5
20260507162505 16 311 11.3 20.9 0.00 0.00 0.00 57 1003.7
20260507162004 16 315 14.5 20.9 0.00 0.00 0.00 59 1003.5
20260507161504 16 311 9.7 20.9 0.00 0.00 0.00 59 1003.5
20260507161004 16 298 12.9 20.9 0.00 0.00 0.00 58 1003.4
20260507160006 16 302 9.7 22.5 0.00 0.00 0.00 60 1003.5
20260507154504 16 317 17.7 27.4 0.00 0.00 0.00 60 1003.4
20260507154004 16 319 14.5 27.4 0.00 0.00 0.00 59 1003.2
20260507153504 16 310 12.9 27.4 0.00 0.00 0.00 58 1003.3
20260507152503 17 302 11.3 22.5 0.00 0.00 0.00 55 1003.2
20260507152004 17 297 12.9 17.7 0.00 0.00 0.00 55 1003.1
20260507151503 17 308 11.3 17.7 0.00 0.00 0.00 56 1003.0
20260507151004 17 313 12.9 17.7 0.00 0.00 0.00 56 1003.0
20260507150503 17 310 12.9 20.9 0.00 0.00 0.00 57 1003.0
20260507150005 17 297 11.3 25.7 0.00 0.00 0.00 55 1003.3
20260507145504 17 275 6.4 25.7 0.00 0.00 0.00 56 1003.0
20260507144003 16 302 8.0 22.5 0.00 0.00 0.00 58 1003.2
20260507143503 17 300 11.3 22.5 0.00 0.00 0.00 56 1003.1
20260507143004 17 286 8.0 24.1 0.00 0.00 0.00 58 1003.1
20260507142504 17 286 11.3 24.1 0.00 0.00 0.00 57 1003.2
20260507142004 16 286 14.5 22.5 0.00 0.00 0.00 62 1003.1
20260507141503 16 285 12.9 20.9 0.00 0.00 0.00 59 1003.1
20260507141004 16 297 6.4 22.5 0.00 0.00 0.00 58 1003.2
20260507140504 16 309 12.9 24.1 0.00 0.00 0.00 57 1003.3
20260507140005 17 311 12.9 24.1 0.00 0.00 0.00 57 1003.2
20260507135503 17 303 17.7 24.1 0.00 0.00 0.00 57 1003.2
20260507135003 17 308 11.3 27.4 0.00 0.00 0.00 56 1003.1
20260507134603 17 317 12.9 27.4 0.00 0.00 0.00 54 1003.0
20260507134104 17 312 6.4 27.4 0.00 0.00 0.00 57 1003.0
20260507133604 17 305 8.0 27.4 0.00 0.00 0.00 56 1003.1
20260507133104 17 289 12.9 22.5 0.00 0.00 0.00 55 1003.2
20260507132603 17 290 9.7 22.5 0.00 0.00 0.00 57 1003.2
20260507132103 17 300 12.9 25.7 0.00 0.00 0.00 57 1003.3
20260507131603 17 294 16.1 25.7 0.00 0.00 0.00 57 1003.1
20260507131103 17 295 11.3 20.9 0.00 0.00 0.00 58 1003.2
20260507130603 17 284 12.9 22.5 0.00 0.00 0.00 58 1003.2
20260507130104 17 282 9.7 24.1 0.00 0.00 0.00 57 1003.1
20260507125603 17 301 12.9 24.1 0.00 0.00 0.00 57 1003.4
20260507124604 17 310 9.7 22.5 0.00 0.00 0.00 58 1003.2
20260507124103 17 316 11.3 27.4 0.00 0.00 0.00 58 1003.1
20260507123604 17 309 8.0 27.4 0.00 0.00 0.00 57 1003.4
20260507123103 17 304 17.7 27.4 0.00 0.00 0.00 60 1003.2
20260507122603 17 302 12.9 17.7 0.00 0.00 0.00 57 1003.2
20260507122103 16 291 11.3 20.9 0.00 0.00 0.00 59 1003.1
20260507121602 18 270 11.3 20.9 0.00 0.00 0.00 56 1003.3
20260507121103 18 271 11.3 20.9 0.00 0.00 0.00 56 1003.2
20260507120603 18 287 11.3 20.9 0.00 0.00 0.00 56 1003.1
20260507120104 17 321 3.2 14.5 0.00 0.00 0.00 59 1003.4
20260507115602 17 303 11.3 14.5 0.00 0.00 0.00 62 1003.2
20260507115103 17 272 11.3 14.5 0.00 0.00 0.00 62 1003.2
20260507114103 17 171 4.8 14.5 0.00 0.00 0.00 61 1003.3
20260507113602 17 158 9.7 12.9 0.00 0.00 0.00 61 1003.1
20260507113103 17 176 9.7 14.5 0.00 0.00 0.00 61 1003.2
20260507112603 17 263 9.7 14.5 0.00 0.00 0.00 61 1003.2
20260507111603 17 285 11.3 14.5 0.00 0.00 0.00 61 1003.1
20260507111102 16 272 6.4 14.5 0.00 0.00 0.00 64 1003.1
20260507110602 16 282 9.7 12.9 0.00 0.00 0.00 66 1003.1
20260507105603 16 204 8.0 12.9 0.00 0.00 0.00 64 1003.1
20260507105103 17 221 6.4 14.5 0.00 0.00 0.00 62 1003.1
20260507104602 16 258 6.4 14.5 0.00 0.00 0.00 63 1003.0
20260507104103 15 266 3.2 14.5 0.00 0.00 0.00 67 1002.9
20260507102102 16 230 8.0 17.7 0.00 0.00 0.00 64 1002.9
20260507101601 16 233 11.3 17.7 0.00 0.00 0.00 66 1003.0
20260507101102 16 235 11.3 17.7 0.00 0.00 0.00 66 1003.0
20260507100601 16 259 11.3 17.7 0.00 0.00 0.00 68 1003.0
20260507095602 15 270 14.5 17.7 0.00 0.00 0.00 70 1003.1
20260507095101 15 270 14.5 17.7 0.00 0.00 0.00 70 1003.0
20260507094602 14 270 12.9 17.7 0.00 0.00 0.00 75 1003.1
20260507094101 14 270 12.9 17.7 0.00 0.00 0.00 75 1003.0
20260507093602 14 277 12.9 20.9 0.00 0.00 0.00 75 1002.9
20260507093103 14 288 12.9 20.9 0.00 0.00 0.00 76 1002.9
20260507092601 15 281 12.9 20.9 0.00 0.00 0.00 73 1002.9
20260507092101 15 265 9.7 17.7 0.00 0.00 0.00 73 1002.9
20260507091103 14 255 12.9 17.7 0.00 0.00 0.00 76 1002.8
20260507090601 14 277 12.9 20.9 0.00 0.00 0.00 76 1002.8
20260507085603 15 292 12.9 20.9 0.00 0.00 0.00 72 1002.5
20260507084603 13 273 12.9 27.4 0.00 0.00 0.00 75 1002.7
20260507084105 14 273 16.1 24.1 0.00 0.00 0.00 75 1002.6
20260507083604 15 275 12.9 24.1 0.00 0.00 0.00 75 1002.5
20260507083104 13 268 12.9 24.1 0.00 0.00 0.00 76 1002.6
20260507082604 13 282 12.9 25.7 0.00 0.00 0.00 78 1002.6
20260507082105 13 287 6.4 25.7 0.00 0.00 0.00 79 1002.4
20260507081605 13 285 17.7 25.7 0.00 0.00 0.00 79 1002.6
20260507081106 13 285 17.7 27.4 0.00 0.00 0.00 78 1002.5
20260507080605 13 277 17.7 27.4 0.00 0.00 0.00 78 1002.6
20260507080107 13 286 14.5 24.1 0.00 0.00 0.00 81 1002.8
20260507075607 13 277 12.9 24.1 0.00 0.00 0.00 82 1002.6
20260507075106 13 266 19.3 24.1 0.00 0.00 0.00 82 1002.5
20260507074606 13 271 19.3 24.1 0.00 0.00 0.00 82 1002.5
20260507074107 12 274 17.7 24.1 0.00 0.00 0.00 82 1002.3
20260507073606 12 277 16.1 27.4 0.00 0.00 0.00 83 1002.4
20260507073106 12 273 19.3 27.4 0.00 0.00 0.00 83 1002.4
20260507072607 12 267 9.7 17.7 0.00 0.00 0.00 86 1002.3
20260507072106 12 271 14.5 20.9 0.00 0.00 0.00 84 1002.3
20260507071606 12 289 6.4 22.5 0.00 0.00 0.00 85 1002.4
20260507070607 12 283 12.9 20.9 0.00 0.00 0.00 84 1002.0
20260507070108 12 276 14.5 22.5 0.00 0.00 0.00 84 1002.2
20260507065606 12 274 14.5 24.1 0.00 0.00 0.00 85 1002.0
20260507065106 13 273 17.7 24.1 0.00 0.00 0.00 84 1002.2
20260507064607 13 274 14.5 22.5 0.00 0.00 0.00 84 1001.9
20260507064106 13 269 16.1 20.9 0.00 0.00 0.00 85 1001.8
20260507063607 12 270 8.0 22.5 0.00 0.00 0.00 86 1001.8
20260507063107 12 270 17.7 22.5 0.00 0.00 0.00 87 1001.6
20260507062606 12 257 14.5 22.5 0.00 0.00 0.00 87 1001.6
20260507062107 12 250 12.9 17.7 0.00 0.00 0.00 88 1001.6
20260507061607 12 262 9.7 17.7 0.00 0.00 0.00 88 1001.7
20260507061106 12 273 12.9 17.7 0.00 0.00 0.00 88 1001.4
20260507054605 12 265 6.4 11.3 0.00 0.00 0.00 92 1001.3
20260507054106 12 260 6.4 12.9 0.00 0.00 0.00 93 1001.4
20260507053105 11 265 8.0 12.9 0.00 0.00 0.00 95 1001.3
20260507052605 11 246 8.0 12.9 0.00 0.00 0.00 95 1001.2
20260507052106 11 235 3.2 9.7 0.00 0.00 0.00 95 1001.1
20260507051606 11 235 6.4 9.7 0.00 0.00 0.00 95 1001.2
20260507051106 11 242 3.2 6.4 0.00 0.00 0.00 95 1001.0
20260507050606 11 255 6.4 6.4 0.00 0.00 0.00 94 1001.1
20260507050107 11 270 3.2 6.4 0.00 0.00 0.00 95 1001.0
20260507045606 11 284 3.2 6.4 0.00 0.00 0.00 96 1000.8
20260507045105 11 304 3.2 6.4 0.00 0.00 0.00 97 1000.6
20260507044604 11 314 1.6 3.2 0.00 0.00 0.00 98 1000.8
20260507044105 11 314 0.0 3.2 0.00 0.00 0.00 98 1000.8
20260507043606 11 314 0.0 3.2 0.00 0.00 0.00 99 1000.7
20260507043105 11 314 0.0 3.2 0.00 0.00 0.00 99 1000.6
20260507042605 11 314 0.0 3.2 0.00 0.00 0.00 99 1000.4
20260507042105 11 0 0.0 0.0 0.00 0.00 0.00 99 1000.4
20260507041604 11 314 0.0 3.2 0.00 0.00 0.00 99 1000.2
20260507041106 11 324 0.0 3.2 0.00 0.00 0.00 99 1000.2
20260507040605 11 325 1.6 3.2 0.00 0.00 0.00 99 1000.1
20260507040106 11 321 3.2 3.2 0.00 0.00 0.00 99 1000.0
20260507035604 11 323 0.0 6.4 0.00 0.00 0.00 99 1000.0
20260507034605 10 299 3.2 6.4 0.00 0.00 0.00 99 1000.1
20260507034104 10 296 3.2 6.4 0.00 0.00 0.00 99 1000.2
20260507033105 10 276 3.2 11.3 0.00 0.00 0.00 99 999.9
20260507032604 10 276 4.8 11.3 0.00 0.00 0.00 99 999.8
20260507032104 10 283 6.4 9.7 0.00 0.00 0.00 99 999.9
20260507031604 10 290 4.8 9.7 0.00 0.00 0.00 98 999.9
20260507030604 11 288 4.8 9.7 0.00 0.00 0.00 98 1000.0
20260507030104 11 280 3.2 9.7 0.00 0.00 0.00 97 999.6
20260507025604 11 289 6.4 9.7 0.00 0.00 0.00 97 999.8
20260507025103 11 299 6.4 12.9 0.00 0.00 0.00 95 999.6
20260507024103 12 338 6.4 9.7 0.00 0.00 0.00 90 999.5
20260507023603 12 111 0.0 6.4 0.00 0.00 0.00 87 999.3
20260507023104 12 111 3.2 6.4 0.00 0.00 0.00 86 999.1
20260507022603 12 111 4.8 6.4 0.00 0.00 0.00 87 999.2
20260507021604 12 111 0.0 6.4 0.00 0.00 0.00 87 999.3
20260507021104 12 114 3.2 6.4 0.00 0.00 0.00 88 999.2
20260507020105 11 135 0.0 3.2 0.00 0.00 0.00 95 999.1
20260507015603 11 151 0.0 3.2 0.00 0.00 0.00 96 999.2
20260507015103 11 173 0.0 6.4 0.00 0.00 0.00 96 999.1
20260507014603 11 173 3.2 6.4 0.00 0.00 0.00 97 999.1
20260507014104 11 192 4.8 9.7 0.00 0.00 0.00 98 999.1
20260507013602 11 213 6.4 9.7 0.00 0.00 0.00 98 999.0
20260507013103 11 206 6.4 6.4 0.00 0.00 0.00 97 999.2
20260507012100 11 224 4.8 6.4 0.00 0.00 0.00 96 999.1
20260507011558 11 108 3.2 9.7 0.00 0.00 0.00 95 998.9
20260507010557 11 90 4.8 6.4 0.00 0.00 0.00 96 998.9
20260507010057 11 265 0.0 6.4 0.00 0.00 0.00 97 998.9
20260507004557 11 237 3.2 9.7 0.00 0.00 0.00 97 998.9
20260507004057 11 233 4.8 9.7 0.00 0.00 0.00 96 998.8
20260507003557 12 154 6.4 9.7 0.00 0.00 0.00 92 998.6
20260507003057 12 96 0.0 6.4 0.00 0.00 0.00 90 998.5
20260507002056 12 89 3.2 6.4 0.00 0.00 0.00 91 998.4
20260507001057 11 90 0.0 17.7 0.00 0.00 0.00 94 998.2
20260507000556 11 90 12.9 17.7 0.00 0.00 0.00 95 998.1
20260507000058 11 84 12.9 17.7 0.00 0.00 0.00 95 997.7
20260506235556 11 62 6.4 9.7 0.00 0.00 0.00 95 997.8
20260506234556 11 343 4.8 12.9 0.00 0.00 0.00 96 998.1
20260506234056 11 338 8.0 12.9 0.00 0.00 0.00 97 998.2
20260506233555 11 12 3.2 12.9 0.00 0.00 0.00 97 997.9
20260506233056 11 341 0.0 12.9 0.00 0.00 0.00 97 998.0
20260506232555 11 313 9.7 12.9 0.00 0.00 0.00 97 998.1
20260506232057 11 310 3.2 12.9 0.00 0.00 0.00 97 998.2